"Pseudo-MPEC" for P10NVCW

Created 2019 May 28 14:07:16 UT using Find_Orb

Click here for an explanation of pseudo-MPECs

 
 Astrometry: 
     P10NVCW  C2019 05 12MCD@)5IBQo0_dQ1Ur:oCGp$Lr:5Mfbp0\SE,uP!n;;2lg('g%N])F51
     P10NVCW  C2019 05 12U/xD6`Astrometry`NC9N)h$^6syH?%j]aKJATaJcJ-`tmFIj_QsF51
     P10NVCW  C2019 05 12(/X)WAH71`R60sjLxSvT:]Ob)RRC)L%l*wO;x,)8_@H2dN0rKe2.F51
     P10NVCW |C2019 05 15:tkF'hOSGu7EK,c#mG;RA=d+lO#=:j%.redacted;JTEm]R:XC_]807
     P10NVCW |C2019 05 15*#`wJ!)ksmveBT\6D;xeRbXinMH82+B5Fs_!*tI[9l5O\3j[O0gk807
     P10NVCW |C2019 05 15B1`o3R\rNqG1@clickIonrP.e7UR(j(lWshBY^U1@hereN9kl`Vf807
     P10NVCW  C2019 05 27/L[\CBZUtEVbWPQyc5UO/]hTO)1p87QtmNOib*d%*tg;$r:B-IqpF52
     P10NVCW  C2019 05 27,9%6Bj,5'7cte8dMw(,'VNB[F6#.:NXg]jdMPSTg),UG4,)tg_H/F52
     P10NVCW  C2019 05 27@IyCWmqin9M^W50/VLl=[m+gv%T[(=VQqSbd%Q2$KOY:_Bp14gG[F52
     P10NVCW KC2019 05 28r4forWxCl:H11VsP[JbSOg(b'g*RRr?ySlhdDeVJ%Y5k5.AJX]#a291
     P10NVCW KC2019 05 28%+I,L-^$YX$2$FvHexplanation1-L6fa'Uo%':(i?3l%_d=3vAF291
     P10NVCW  C2019 05 28.38651 15 57 27.28 +08 59 07.8    ~5SC7       VNEOCPV06
     P10NVCW  C2019 05 28.38800 15 57 27.19 +08 59 07.0    ~5SC7 21.6 GVNEOCPV06
     P10NVCW  C2019 05 28.38949 15 57 27.00 +08 59 06.3    ~5SC7 22.2 GVNEOCPV06
     P10NVCW  C2019 05 28.39097 15 57 26.85 +08 59 05.0    ~5SC7       VNEOCPV06

Station data:
(291) LPL/Spacewatch II  (N31.961669 W111.599905)  US/Arizona.  Observers J.
   V. Scotti, R. S. McMillan. 1.8-m f/2.7 reflector + CCD.
(807) Cerro Tololo Observatory, La Serena  (S30.169136 W70.805900)  Chile.
(F51) Pan-STARRS 1, Haleakala  (N20.707235 W156.255910)  US/Hawaii.
   Observers N. Primak, A. Schultz, S. Watters, J. Thiel, T. Goggia. Measurer
   PS1 Science Consortium. 1.8-m Ritchey-Chrétien + CCD.
(F52) Pan-STARRS 2, Haleakala  (N20.707384 W156.255910)  US/Hawaii. 1.8-m
   Ritchey-Chrétien + CCD.
(V06) Catalina Sky Survey-Kuiper  (N32.416847 W110.732550)  US/Arizona.
   Observers T. A. Pruyne, B. M. Africano, E. J. Christensen, G. A. Farneth,
   D. C. Fuls, A. R. Gibbs, A. D. Grauer, H. Groeller, J. A. Johnson, R. A.
   Kowalski, S. M. Larson, G. J. Leonard, R. L. Seaman, F. C. Shelly. 1.55-m
   reflector + CCD.

Orbital elements:  P10NVCW
   Perihelion 2020 Jan 31.143083 +/- 0.365 TT =  3:26:02 (JD 2458879.643083)
Epoch 2019 May 28.0 TT = JDT 2458631.5   Earth MOID: 0.6142   AutoNEOCP
M 257.01597431 +/- 0.20             (J2000 ecliptic)
n   0.41501872 +/- 0.000325         Peri.  260.99277 +/- 0.11
a   1.78001743 +/- 0.000928         Node    97.62315 +/- 0.036
e   0.1580377 +/- 0.000615          Incl.   22.68492 +/- 0.026
P   2.37/867.41d           H 20.1   G  0.15   U  7.4  
q 1.49870740 +/- 0.000369    Q 2.06132745 +/- 0.00215
From 15 observations 2019 May 12-28; mean residual 0".22
Residuals in arcseconds: 
190512 F51  .12-  .08+    190515 807  .08-  .17+    190528 291  .10+  .47+    
190512 F51  .04-  .25-    190527 F52  .10+  .21+    190528 V06  .26-  .30-    
190512 F51  .27+  .19+    190527 F52  .07+  .15-    190528 V06  .49+  .20-    
190515 807  .04+  .22-    190527 F52  .14+  .09+    190528 V06  .24-  .01+    
190515 807  .12-  .01+    190528 291  .03-  .09+    190528 V06  .39-  .40-    

Ephemerides (geocentric):
Date (UTC) HH   RA              Dec         delta   r     elong  mag " sig PA
---- -- -- --  -------------   -----------  ------ ------ -----  --- ---- ---
2019 05 28 14  15 57 09.539   +08 57 12.77  .93859 1.8817 149.1 22.2 .082 154
2019 05 28 15  15 57 05.716   +08 56 47.38  .93855 1.8816 149.1 22.2 .088 153
2019 05 28 16  15 57 01.894   +08 56 21.93  .93851 1.8815 149.1 22.2 .095 153
2019 05 28 17  15 56 58.072   +08 55 56.43  .93847 1.8815 149.1 22.2 .101 153
2019 05 28 18  15 56 54.250   +08 55 30.88  .93844 1.8814 149.1 22.2 .107 153
2019 05 28 19  15 56 50.429   +08 55 05.28  .93840 1.8813 149.1 22.2 .113 153
2019 05 28 20  15 56 46.609   +08 54 39.63  .93836 1.8812 149.1 22.2 .119 153
2019 05 28 21  15 56 42.788   +08 54 13.93  .93832 1.8812 149.1 22.2 .126 153
2019 05 28 22  15 56 38.969   +08 53 48.18  .93829 1.8811 149.0 22.2 .132 153
2019 05 28 23  15 56 35.149   +08 53 22.37  .93825 1.8810 149.0 22.2 .138 153
2019 05 29 00  15 56 31.330   +08 52 56.52  .93822 1.8809 149.0 22.2 .145 153
2019 05 29 01  15 56 27.512   +08 52 30.61  .93818 1.8809 149.0 22.2 .151 152
2019 05 29 02  15 56 23.694   +08 52 04.65  .93815 1.8808 149.0 22.2 .158 152
2019 05 29 03  15 56 19.876   +08 51 38.64  .93811 1.8807 149.0 22.2 .164 152
2019 05 29 04  15 56 16.059   +08 51 12.58  .93808 1.8806 149.0 22.2 .171 152
2019 05 29 05  15 56 12.243   +08 50 46.47  .93805 1.8806 149.0 22.2 .177 152
2019 05 29 06  15 56 08.427   +08 50 20.30  .93801 1.8805 149.0 22.2 .184 152
2019 05 29 07  15 56 04.611   +08 49 54.09  .93798 1.8804 149.0 22.2 .190 152
2019 05 29 08  15 56 00.796   +08 49 27.82  .93795 1.8803 148.9 22.2 .197 152
2019 05 29 09  15 55 56.981   +08 49 01.51  .93792 1.8803 148.9 22.2 .204 152
2019 05 29 10  15 55 53.167   +08 48 35.14  .93788 1.8802 148.9 22.2 .210 152
2019 05 29 11  15 55 49.354   +08 48 08.72  .93785 1.8801 148.9 22.2 .217 152
2019 05 29 12  15 55 45.541   +08 47 42.25  .93782 1.8800 148.9 22.2 .224 152
2019 05 29 13  15 55 41.729   +08 47 15.73  .93779 1.8800 148.9 22.2 .231 152
2019 05 29 14  15 55 37.917   +08 46 49.16  .93776 1.8799 148.9 22.2 .238 152
2019 05 29 15  15 55 34.106   +08 46 22.54  .93773 1.8798 148.9 22.2 .245 152
2019 05 29 16  15 55 30.296   +08 45 55.86  .93770 1.8797 148.8 22.2 .252 151
2019 05 29 17  15 55 26.486   +08 45 29.14  .93767 1.8797 148.8 22.2 .259 151
2019 05 29 18  15 55 22.676   +08 45 02.37  .93764 1.8796 148.8 22.2 .266 151
2019 05 29 19  15 55 18.868   +08 44 35.54  .93762 1.8795 148.8 22.2 .273 151
2019 05 29 20  15 55 15.059   +08 44 08.66  .93759 1.8794 148.8 22.2 .280 151
2019 05 29 21  15 55 11.252   +08 43 41.74  .93756 1.8794 148.8 22.2 .287 151
2019 05 29 22  15 55 07.445   +08 43 14.76  .93753 1.8793 148.8 22.2 .294 151
2019 05 29 23  15 55 03.639   +08 42 47.73  .93751 1.8792 148.8 22.2 .301 151
2019 05 30 00  15 54 59.834   +08 42 20.65  .93748 1.8791 148.8 22.2 .309 151
2019 05 30 01  15 54 56.029   +08 41 53.52  .93746 1.8791 148.7 22.2 .316 151
2019 05 30 02  15 54 52.225   +08 41 26.34  .93743 1.8790 148.7 22.2 .323 151
2019 05 30 03  15 54 48.421   +08 40 59.11  .93740 1.8789 148.7 22.2 .330 151
2019 05 30 04  15 54 44.619   +08 40 31.82  .93738 1.8788 148.7 22.2 .338 151
2019 05 30 05  15 54 40.817   +08 40 04.49  .93735 1.8788 148.7 22.2 .345 151
2019 05 30 06  15 54 37.015   +08 39 37.11  .93733 1.8787 148.7 22.2 .353 151
2019 05 30 07  15 54 33.215   +08 39 09.67  .93731 1.8786 148.7 22.2 .360 151
2019 05 30 08  15 54 29.415   +08 38 42.19  .93728 1.8785 148.7 22.2 .368 150
2019 05 30 09  15 54 25.616   +08 38 14.65  .93726 1.8785 148.6 22.2 .375 150
2019 05 30 10  15 54 21.818   +08 37 47.07  .93724 1.8784 148.6 22.2 .383 150
2019 05 30 11  15 54 18.020   +08 37 19.43  .93722 1.8783 148.6 22.2 .390 150
2019 05 30 12  15 54 14.224   +08 36 51.74  .93719 1.8782 148.6 22.2 .398 150
2019 05 30 13  15 54 10.428   +08 36 24.01  .93717 1.8782 148.6 22.2 .406 150